Welcome to our new website - Welkom op onze vernieuwde website - Bienvenue sur notre nouveau site web - Willkommen auf unserer neuen Website
Check our progress frequently. Prüfen Sie unsere Fortschritte regelmäßig. Consultez notre progression fréquemment. Komt u straks nog eens terug


Hej. Vi har købt ny vejrstation, og er ved at bygge en helt ny vejrside.
Kom snart tilbage og følg udviklingen.
Du kan også komme med kommentarer eller evt. ønsker via "Kontakt" i bunden.



Webcam more information Webcam


Rain radar more information rain snow radar


Visit our other weather sites:

Template documentation
and downloads

And another site



Select another period ( hide this area )

Units Period Custom range Directly to
Metric English Both
Daily Weekly Monthly Yearly
use both date-selectors for a custom range
previous Day
With this date

WeatherUnderground graphs for this period ( click here )



Warning: Division by zero in /home/www/horsholmvejr.dk/weather28/wu/WU-History4.php on line 835
Daily Summary for Saturday 23 November 2019
Time Temp. ( °C ) Dew pt. ( °C ) Wind ( km/h ) from Gust ( km/h ) Pressure ( hPa ) Humid.( % ) Rainrate ( cm ) Solar ( W/m2 )
High8,1 7,2 32,2 ESE ( 231/476 ) 32,2 1014,4 94 0,30 0
Average7,9 6,9 12,5 ESE #17/38 20,3 1014,4 94 0,60 0 #0/38
Low7,8 6,7 3,2   12,9 1014,1 93 -  
Daily Tabular details for Saturday 23 November 2019
Time Temp. ( °C ) Dew pt. ( °C ) Wind ( km/h ) from Gust ( km/h ) Pressure ( hPa ) Humid.( % ) Rainrate ( cm ) Solar ( W/m2 )
00:00 8,1 7,2 7,9 SSE 20,9 1014,4 94 - -
00:05 8,1 7,2 6,4 ENE 16,1 1014,4 94 - -
00:10 8,1 7,2 3,2 SE 12,9 1014,4 94 - -
00:15 8,1 7,2 11,1 ESE 17,7 1014,4 94 - -
00:20 8,1 7,2 9,7 SSE 14,5 1014,4 94 - -
00:25 8,1 7,2 6,4 ESE 16,1 1014,4 94 - -
00:30 8,1 7,2 3,2 East 16,1 1014,4 94 - -
00:35 8,1 7,2 16,3 East 22,5 1014,4 94 - -
00:40 8,1 7,2 11,1 SE 14,5 1014,4 94 - -
00:45 8,1 7,2 19,5 ESE 20,9 1014,4 94 - -
00:50 8,0 7,1 14,3 East 17,7 1014,4 94 - -
00:55 8,0 7,1 17,7 East 24,1 1014,4 94 - -
01:00 8,0 7,1 14,3 East 14,5 1014,4 94 - -
01:05 8,0 7,1 9,7 ESE 22,5 1014,4 94 - -
01:10 7,9 7,0 11,1 ESE 22,5 1014,4 94 - -
01:15 7,9 7,0 11,1 East 22,5 1014,4 94 - -
01:20 7,9 7,0 32,2 ESE 32,2 1014,4 94 - -
01:25 7,9 7,0 19,5 East 24,1 1014,4 94 0,30 -
01:30 7,9 7,0 11,1 East 14,5 1014,4 94 0,30 -
01:35 7,9 6,8 16,3 ESE 22,5 1014,4 93 0,30 -
01:40 7,9 6,8 13,0 ESE 17,7 1014,4 93 0,30 -
01:45 7,9 6,8 16,3 ESE 22,5 1014,4 93 0,30 -
01:50 7,9 6,8 6,4 SE 17,7 1014,4 93 0,30 -
01:55 7,9 6,8 13,0 ESE 25,7 1014,4 93 0,30 -
02:00 7,9 6,8 19,5 ESE 30,6 1014,4 93 0,30 -
02:05 7,9 6,8 17,7 ESE 22,5 1014,4 93 0,30 -
02:10 7,9 6,8 19,5 East 22,5 1014,4 93 0,30 -
02:15 7,8 6,7 4,7 ESE 24,1 1014,4 93 0,30 -
02:20 7,8 6,7 6,4 ESE 20,9 1014,1 93 0,30 -
02:25 7,8 6,7 20,9 East 20,9 1014,4 93 - -
02:30 7,8 6,7 6,4 SE 30,6 1014,1 93 - -
02:35 7,8 6,7 6,4 East 16,1 1014,4 93 - -
02:40 7,8 6,7 11,1 East 22,5 1014,4 93 - -
02:45 7,8 6,7 17,7 East 17,7 1014,4 93 - -
02:50 7,8 6,7 6,4 ESE 14,5 1014,4 93 - -
02:55 7,8 6,7 13,0 ESE 16,1 1014,4 93 - -
03:00 7,8 6,7 11,1 SE 20,9 1014,4 93 - -
03:05 7,8 6,7 14,3 ESE 17,7 1014,4 93 - -
Daily Summary for Saturday 23 November 2019
Time Temp. ( °C ) Dew pt. ( °C ) Wind ( km/h ) from Gust ( km/h ) Pressure ( hPa ) Humid.( % ) Rainrate ( cm ) Solar ( W/m2 )
High8,1 7,2 32,2 ESE ( 231/476 ) 32,2 1014,4 94 0,30 0
Average7,9 6,9 12,5 ESE #17/38 20,3 1014,4 94 0,60 0 #0/38
Low7,8 6,7 3,2   12,9 1014,1 93 -  
Daily Tabular details for Saturday 23 November 2019
Time Temp. ( °C ) Dew pt. ( °C ) Wind ( km/h ) from Gust ( km/h ) Pressure ( hPa ) Humid.( % ) Rainrate ( cm ) Solar ( W/m2 )
00:00 8,1 7,2 7,9 SSE 20,9 1014,4 94 - -
00:05 8,1 7,2 6,4 ENE 16,1 1014,4 94 - -
00:10 8,1 7,2 3,2 SE 12,9 1014,4 94 - -
00:15 8,1 7,2 11,1 ESE 17,7 1014,4 94 - -
00:20 8,1 7,2 9,7 SSE 14,5 1014,4 94 - -
00:25 8,1 7,2 6,4 ESE 16,1 1014,4 94 - -
00:30 8,1 7,2 3,2 East 16,1 1014,4 94 - -
00:35 8,1 7,2 16,3 East 22,5 1014,4 94 - -
00:40 8,1 7,2 11,1 SE 14,5 1014,4 94 - -
00:45 8,1 7,2 19,5 ESE 20,9 1014,4 94 - -
00:50 8,0 7,1 14,3 East 17,7 1014,4 94 - -
00:55 8,0 7,1 17,7 East 24,1 1014,4 94 - -
01:00 8,0 7,1 14,3 East 14,5 1014,4 94 - -
01:05 8,0 7,1 9,7 ESE 22,5 1014,4 94 - -
01:10 7,9 7,0 11,1 ESE 22,5 1014,4 94 - -
01:15 7,9 7,0 11,1 East 22,5 1014,4 94 - -
01:20 7,9 7,0 32,2 ESE 32,2 1014,4 94 - -
01:25 7,9 7,0 19,5 East 24,1 1014,4 94 0,30 -
01:30 7,9 7,0 11,1 East 14,5 1014,4 94 0,30 -
01:35 7,9 6,8 16,3 ESE 22,5 1014,4 93 0,30 -
01:40 7,9 6,8 13,0 ESE 17,7 1014,4 93 0,30 -
01:45 7,9 6,8 16,3 ESE 22,5 1014,4 93 0,30 -
01:50 7,9 6,8 6,4 SE 17,7 1014,4 93 0,30 -
01:55 7,9 6,8 13,0 ESE 25,7 1014,4 93 0,30 -
02:00 7,9 6,8 19,5 ESE 30,6 1014,4 93 0,30 -
02:05 7,9 6,8 17,7 ESE 22,5 1014,4 93 0,30 -
02:10 7,9 6,8 19,5 East 22,5 1014,4 93 0,30 -
02:15 7,8 6,7 4,7 ESE 24,1 1014,4 93 0,30 -
02:20 7,8 6,7 6,4 ESE 20,9 1014,1 93 0,30 -
02:25 7,8 6,7 20,9 East 20,9 1014,4 93 - -
02:30 7,8 6,7 6,4 SE 30,6 1014,1 93 - -
02:35 7,8 6,7 6,4 East 16,1 1014,4 93 - -
02:40 7,8 6,7 11,1 East 22,5 1014,4 93 - -
02:45 7,8 6,7 17,7 East 17,7 1014,4 93 - -
02:50 7,8 6,7 6,4 ESE 14,5 1014,4 93 - -
02:55 7,8 6,7 13,0 ESE 16,1 1014,4 93 - -
03:00 7,8 6,7 11,1 SE 20,9 1014,4 93 - -
03:05 7,8 6,7 14,3 ESE 17,7 1014,4 93 - -

Download your copy of this data-set  here

Our weather-data as stored at Weather Underground. Script developed by Jim McMurry. Adapted for the template by Leuven-Template.eu

You find our weather info also at:

European Weather Network

Weather Underground

European Weather Network

Equipment we use:

Weather-station
Davis VP2

Weather-program
Weather Display

Davis VP2

Weather Display



Hej. Vi har købt ny vejrstation, og er ved at bygge en helt ny vejrside.
Kom snart tilbage og følg udviklingen.
Du kan også komme med kommentarer eller evt. ønsker via "Kontakt" i bunden.